Regional Weather Roundup
Issued by NWS

Home | Current Version | Previous Version | Text Only | Print | Product List | Glossary Off
Versions: 1 2 3 4 5 6 7 8 9 10 11 12 13 14 15 16 17 18 19 20 21 22 23 24 25 26 27 28 29 30 31 32 33 34 35 36 37 38 39 40 41 42 43 44 45 46 47 48 49 50

000
ASUS43 KBIS 032010
RWRND

NORTH DAKOTA REGIONAL WEATHER ROUNDUP
NATIONAL WEATHER SERVICE BISMARCK ND
300 PM CDT MON AUG 03 2015

NOTE: "FAIR" INDICATES FEW OR NO CLOUDS BELOW 12,000 FEET WITH NO
SIGNIFICANT WEATHER AND/OR OBSTRUCTIONS TO VISIBILITY.


NDZ001>003-009>011-017-032100-
NORTHWEST NORTH DAKOTA

CITY           SKY/WX    TMP DP  RH WIND       PRES   REMARKS
WILLISTON      SUNNY     82  43  25 CALM      30.00F
MINOT          SUNNY     77  41  27 CALM      29.99F
MINOT AFB      SUNNY     81  43  26 VRB7      29.98F
$$

NDZ018>021-031>035-040>046-032100-
SOUTHWEST NORTH DAKOTA

CITY           SKY/WX    TMP DP  RH WIND       PRES   REMARKS
BISMARCK       SUNNY     80  49  33 NW8       30.00F
DICKINSON      SUNNY     80  49  33 CALM      30.00F
GARRISON         N/A     77  50  38 VRB7      30.00F
HETTINGER ARPT SUNNY     81  49  32 SE5       30.02F
$$

NDZ004>008-012>016-024-026-027-054-032100-
NORTHEAST NORTH DAKOTA

CITY           SKY/WX    TMP DP  RH WIND       PRES   REMARKS
GRAND FORKS    MOSUNNY   76  49  38 NW15      29.92F
GRND FRKS AFB  SUNNY     76  50  39 N12G21    29.93F
DEVILS LAKE    SUNNY     75  45  33 NW10G22   29.96S
$$

NDZ022-023-025-028>030-036>039-047>053-032100-
SOUTHEAST NORTH DAKOTA

CITY           SKY/WX    TMP DP  RH WIND       PRES   REMARKS
FARGO          SUNNY     80  48  32 NW13G25   29.93S
JAMESTOWN      SUNNY     75  44  33 VRB3      29.97F
$$



USA.gov is the U.S. government's official web portal to all federal, state and local government web resources and services.